Temp
42 43 42 42 42 43 41 45 40 44 42 45 48 49 50 51 52 52 52 52 53 53 54 55 55 56 56 55 56 56 55 56 55 56 57 58 58 59 60 60 61 62 61 62
39 40 41 38 41 41 41 41 41 41 42 48 49 51 50 50 50 49 49 50 50 51 51 51 52 52 53 52 53 54 53 53 53 53 53 53 55 56 57 57 58 59 59 59
37 39 40 37 37 39 39 40 39 38 42 47 45 47 49 50 49 48 48 48 49 49 49 50 50 50 49 50 52 52 51 52 51 50 50 50 52 52 52 53 55 55 56 56
36 38 29 37 44 43 40 40 43 42 43 45 46 49 51 51 50 48 47 48 48 48 48 48 49 49 49 50 50 49 49 49 49 48 48 48 48 48 50 51 51 52 53 54
33 33 38 36 39 39 38 36 43 42 44 47 49 50 50 50 49 47 47 47 47 48 47 47 47 47 47 47 48 47 46 46 47 47 47 47 46 46 48 48 49 50 51 51
34 28 28 37 42 46 45 33 44 45 45 46 48 39 46 49 48 47 47 46 45 46 46 46 46 46 45 45 45 44 43 43 45 46 45 45 46 45 47 48 48 49 49 51
33 30 36 41 44 46 29 34 46 47 47 46 44 49 48 48 47 46 44 44 44 44 43 44 45 44 42 43 41 42 43 43 43 44 44 45 45 45 46 46 46 46 46 48
33 28 25 45 43 36 44 48 48 48 48 46 48 49 47 45 44 43 42 42 42 42 42 44 43 42 40 40 41 40 41 41 41 41 42 43 41 42 42 42 42 42 43 44
36 37 45 48 45 49 48 46 47 47 48 48 48 47 44 43 42 42 41 41 42 41 40 42 42 41 39 39 39 41 41 39 40 41 41 42 40 40 40 41 40 39 39 39
35 43 44 47 49 47 48 47 48 49 48 47 45 44 43 43 42 41 41 40 41 40 40 39 41 39 40 40 40 41 40 40 41 39 39 40 40 39 38 37 37 37 37 37
37 41 43 45 46 47 47 48 47 47 46 45 44 43 42 41 40 40 40 40 40 39 39 38 40 39 40 39 40 40 39 40 39 39 39 40 40 38 39 39 38 37 37 38
35 44 43 44 48 48 46 46 47 46 45 43 43 41 40 40 40 39 39 40 39 38 38 38 38 38 38 39 38 38 38 38 38 40 40 40 39 40 40 39 39 39 40 40
43 47 46 46 47 48 45 46 46 45 45 42 41 40 39 39 39 39 39 38 38 37 37 37 37 37 37 38 37 37 37 39 39 38 39 38 38 37 36 40 39 38 38 39
47 45 41 44 43 47 45 44 43 43 42 41 41 41 39 39 39 38 38 39 38 37 37 36 35 35 36 37 36 36 37 35 37 37 37 37 37 37 37 36 36 37 38 38
44 46 44 46 45 44 44 43 41 40 41 40 40 39 39 38 37 38 40 39 37 36 35 34 34 34 36 35 35 34 36 37 37 36 36 35 36 37 36 36 36 36 37 38
46 45 43 41 43 43 42 41 39 40 41 40 40 39 39 39 39 38 38 37 33 33 34 33 33 35 35 35 34 35 35 32 34 35 35 35 35 35 35 34 35 35 35 35
38 39 40 40 42 43 42 43 42 43 42 41 40 41 40 39 38 37 36 35 35 33 34 33 33 35 34 34 34 35 34 35 32 35 34 34 35 34 34 34 34 34 35 36
44 45 45 45 44 44 43 43 43 42 41 42 41 40 38 37 36 36 35 34 33 33 33 34 34 35 34 34 34 34 33 34 34 33 34 34 34 34 34 33 34 34 35 36
44 42 43 44 45 45 45 44 43 43 42 41 39 38 38 37 36 35 35 32 31 30 33 35 33 34 34 34 34 33 33 33 34 35 34 33 34 35 34 34 34 34 34 34
43 43 43 43 45 43 43 44 43 42 42 40 39 38 36 36 36 34 32 30 31 33 34 34 33 34 34 33 32 34 34 34 33 34 34 34 34 33 34 32 32 33 33 34
43 43 42 42 43 44 43 43 41 40 40 39 37 36 36 36 35 34 31 30 34 34 34 33 34 34 34 33 33 34 33 33 33 33 32 32 32 32 33 32 32 32 32 32
42 41 41 42 42 42 44 43 41 40 39 37 37 37 33 32 33 33 33 31 35 34 34 34 34 33 34 34 35 34 33 32 32 32 32 32 31 31 31 31 30 31 31 31
41 41 41 41 40 40 41 40 38 37 36 36 35 33 32 34 34 31 30 34 33 33 34 33 33 33 33 35 35 34 32 31 31 31 30 30 29 29 29 29 29 29 29 29
42 42 41 41 40 38 36 38 36 36 35 35 35 34 34 33 34 34 35 34 33 33 33 34 33 34 34 34 33 32 32 31 30 29 29 28 28 29 28 28 28 28 28 27
40 40 40 38 36 37 37 37 36 35 34 34 34 34 34 36 34 36 34 34 33 33 33 33 33 34 34 33 32 31 30 30 29 29 28 28 27 27 27 27 26 26 25 24
38 40 40 37 38 39 39 38 36 38 36 34 35 35 35 35 34 34 32 32 32 32 32 32 31 31 31 30 30 29 28 28 28 27 27 26 25 24 24 24 24 24 24 24
37 37 37 36 37 36 35 36 35 34 34 34 34 34 34 33 32 32 31 31 30 30 30 30 29 29 29 28 27 27 27 26 26 26 26 25 25 25 25 24 24 24 24 24
MSLP
1023.46 1023.45 1023.56 1023.34 1023.26 1023.19 1023.04 1022.41 1022.17 1021.88 1022.52 1023.10 1023.82 1024.42 1024.98 1025.57 1025.93 1026.09 1026.25 1026.37 1026.43 1026.39 1026.29 1026.16 1026.06 1026.00 1025.83 1025.61 1025.35 1025.06 1024.61 1024.21 1023.99 1023.71 1023.34 1022.94 1022.46 1021.99 1021.51 1021.04 1020.54 1020.10 1019.63 1019.22
1024.19 1024.22 1024.20 1024.06 1024.02 1024.11 1024.05 1023.83 1023.66 1023.70 1023.62 1024.52 1024.86 1025.15 1025.45 1025.85 1026.26 1026.46 1026.66 1026.89 1026.98 1027.04 1026.98 1026.81 1026.70 1026.57 1026.26 1026.04 1025.76 1025.37 1024.87 1024.51 1024.40 1024.09 1023.70 1023.35 1022.92 1022.36 1021.83 1021.33 1020.80 1020.35 1019.86 1019.41
1024.42 1024.66 1024.38 1024.20 1024.58 1024.69 1024.92 1025.03 1025.03 1024.43 1024.84 1025.19 1025.32 1025.49 1025.71 1025.99 1026.50 1026.80 1027.06 1027.28 1027.36 1027.51 1027.49 1027.36 1027.27 1027.07 1026.74 1026.49 1026.13 1025.62 1025.15 1024.82 1024.66 1024.37 1023.98 1023.62 1023.17 1022.64 1022.25 1021.62 1021.01 1020.52 1020.04 1019.61
1025.16 1024.98 1024.61 1025.14 1025.43 1025.58 1025.67 1025.96 1025.91 1025.80 1025.81 1025.83 1025.90 1025.97 1026.14 1026.46 1026.78 1027.14 1027.54 1027.68 1027.83 1027.94 1027.92 1027.88 1027.71 1027.41 1027.13 1026.69 1026.21 1025.85 1025.39 1025.10 1024.83 1024.55 1024.19 1023.77 1023.33 1022.90 1022.37 1021.83 1021.30 1020.75 1020.23 1019.75
1025.93 1025.26 1024.70 1025.44 1025.81 1025.96 1025.86 1026.34 1026.57 1026.44 1026.35 1026.18 1026.18 1026.16 1025.90 1026.67 1027.29 1027.77 1028.12 1028.38 1028.47 1028.45 1028.33 1028.09 1027.90 1027.74 1027.33 1026.79 1026.40 1026.01 1025.75 1025.48 1025.16 1024.73 1024.15 1023.75 1023.35 1022.88 1022.44 1021.94 1021.36 1020.85 1020.39 1019.89
1026.67 1025.82 1024.69 1025.17 1026.09 1026.34 1026.35 1025.85 1026.52 1026.57 1026.40 1026.21 1026.16 1025.91 1025.56 1026.74 1027.57 1028.06 1028.40 1028.59 1028.67 1028.71 1028.53 1028.31 1028.20 1028.06 1027.63 1027.17 1026.86 1026.58 1026.41 1026.05 1025.56 1024.98 1024.44 1023.85 1023.38 1022.99 1022.56 1022.00 1021.38 1020.92 1020.37 1019.89
1026.55 1026.09 1025.34 1026.10 1026.41 1026.53 1026.39 1026.31 1026.38 1026.40 1026.31 1026.27 1026.00 1025.74 1026.37 1027.18 1027.68 1028.29 1028.74 1028.97 1029.09 1028.92 1028.73 1028.61 1028.50 1028.40 1027.94 1027.61 1027.37 1027.28 1026.90 1026.35 1025.80 1025.28 1024.63 1024.11 1023.66 1023.16 1022.54 1022.03 1021.61 1021.12 1020.61 1020.17
1026.66 1026.26 1025.81 1026.23 1026.39 1026.44 1026.01 1026.13 1026.05 1026.12 1026.14 1026.06 1025.98 1026.15 1026.77 1027.37 1027.94 1028.46 1028.79 1029.04 1029.19 1029.04 1028.87 1028.73 1028.82 1028.65 1028.31 1028.06 1027.94 1027.69 1027.04 1026.40 1025.93 1025.47 1024.97 1024.47 1024.00 1023.48 1022.97 1022.49 1021.96 1021.54 1021.12 1020.72
1026.60 1025.73 1025.92 1026.06 1026.31 1026.28 1026.46 1026.34 1026.26 1026.12 1026.01 1025.94 1025.92 1026.39 1027.19 1027.70 1028.18 1028.54 1028.91 1029.09 1029.23 1029.22 1029.07 1028.89 1028.91 1028.84 1028.61 1028.43 1028.23 1027.59 1026.97 1026.60 1026.13 1025.63 1025.28 1024.80 1024.34 1023.87 1023.45 1023.06 1022.60 1022.34 1021.97 1021.60
1027.08 1025.92 1025.73 1025.86 1025.84 1026.31 1026.39 1026.34 1026.24 1026.17 1026.18 1026.30 1026.46 1026.92 1027.36 1027.81 1028.21 1028.63 1028.93 1029.11 1029.26 1029.18 1028.95 1028.99 1029.03 1029.08 1028.79 1028.56 1028.25 1027.57 1027.07 1026.64 1026.19 1025.97 1025.53 1025.12 1024.89 1024.49 1024.05 1023.77 1023.34 1022.99 1022.63 1022.20
1026.38 1025.95 1025.91 1025.67 1025.83 1026.06 1026.12 1026.19 1026.19 1026.30 1026.48 1026.60 1026.85 1027.07 1027.50 1027.81 1028.24 1028.57 1028.85 1029.06 1029.20 1029.14 1029.06 1029.11 1029.14 1029.03 1028.94 1028.65 1028.27 1027.57 1027.13 1026.76 1026.48 1026.18 1025.81 1025.38 1025.05 1024.94 1024.59 1024.48 1024.19 1023.71 1023.32 1022.75
1025.37 1025.46 1025.65 1025.43 1025.68 1025.91 1025.93 1025.89 1025.90 1026.02 1026.37 1026.83 1027.17 1027.39 1027.81 1028.01 1028.33 1028.58 1028.68 1028.92 1029.05 1029.11 1029.15 1029.13 1029.14 1028.95 1028.96 1028.77 1028.42 1027.86 1027.25 1026.82 1026.65 1026.12 1025.85 1025.53 1025.23 1024.85 1024.86 1024.96 1024.74 1024.33 1023.67 1023.23
1025.47 1025.55 1025.67 1025.69 1025.73 1025.75 1025.74 1025.74 1025.82 1026.07 1026.38 1026.81 1027.28 1027.65 1027.91 1028.06 1028.25 1028.44 1028.59 1028.79 1028.94 1029.02 1029.12 1029.14 1029.12 1028.92 1028.99 1028.80 1028.58 1028.13 1027.56 1027.00 1026.72 1026.46 1026.01 1025.75 1025.56 1025.25 1024.76 1024.66 1024.63 1024.65 1024.26 1023.58
1025.63 1025.72 1025.53 1025.39 1025.24 1025.42 1025.72 1025.82 1026.07 1026.31 1026.67 1026.98 1027.24 1027.56 1027.82 1027.94 1028.11 1028.25 1028.33 1028.54 1028.82 1028.99 1029.00 1029.11 1029.09 1028.97 1029.01 1028.83 1028.58 1028.24 1027.86 1027.57 1027.17 1026.90 1026.63 1026.23 1025.97 1025.66 1025.35 1024.98 1024.53 1024.20 1024.10 1023.79
1025.13 1025.17 1025.13 1025.18 1025.36 1025.39 1025.64 1025.83 1026.07 1026.24 1026.51 1026.83 1027.18 1027.34 1027.50 1027.64 1027.77 1027.89 1028.11 1028.42 1028.68 1028.83 1028.83 1028.97 1028.95 1028.86 1028.96 1028.83 1028.56 1028.26 1027.91 1027.59 1027.36 1027.21 1027.01 1026.83 1026.45 1026.04 1025.76 1025.36 1024.97 1024.54 1024.14 1023.76
1024.58 1024.72 1024.79 1024.85 1024.81 1024.94 1025.27 1025.56 1025.76 1025.84 1026.07 1026.32 1026.63 1026.84 1027.03 1027.25 1027.43 1027.66 1027.90 1028.24 1028.46 1028.36 1028.51 1028.69 1028.68 1028.72 1028.76 1028.68 1028.50 1028.27 1028.12 1028.07 1027.69 1027.35 1027.10 1026.82 1026.58 1026.23 1025.91 1025.59 1025.16 1024.73 1024.32 1024.01
1024.37 1024.08 1024.08 1024.13 1024.23 1024.47 1024.66 1024.91 1025.09 1025.22 1025.53 1025.81 1026.03 1026.32 1026.64 1026.88 1027.09 1027.28 1027.50 1027.86 1028.06 1028.22 1028.34 1028.39 1028.41 1028.49 1028.46 1028.41 1028.35 1028.16 1028.06 1027.83 1027.78 1027.35 1027.09 1026.78 1026.46 1026.16 1025.91 1025.59 1025.19 1024.83 1024.52 1024.32
1023.57 1023.55 1023.65 1023.60 1023.63 1023.81 1024.04 1024.33 1024.59 1024.77 1024.94 1025.16 1025.53 1025.89 1026.11 1026.32 1026.49 1026.73 1027.04 1027.45 1027.72 1027.84 1027.93 1027.97 1028.12 1028.19 1028.17 1028.14 1028.11 1028.01 1027.90 1027.65 1027.41 1027.19 1027.01 1026.67 1026.40 1026.19 1025.85 1025.59 1025.27 1024.88 1024.45 1024.13
1023.27 1023.28 1023.30 1023.30 1023.30 1023.41 1023.54 1023.67 1023.84 1024.01 1024.35 1024.72 1025.03 1025.17 1025.41 1025.74 1026.08 1026.39 1026.77 1027.08 1027.22 1027.22 1027.20 1027.47 1027.73 1027.77 1027.78 1027.83 1027.77 1027.79 1027.61 1027.33 1027.02 1026.82 1026.67 1026.49 1026.10 1025.84 1025.59 1025.36 1025.02 1024.65 1024.32 1023.89
1022.75 1022.92 1022.98 1022.94 1023.04 1023.11 1023.12 1023.14 1023.43 1023.67 1023.91 1024.25 1024.50 1024.69 1024.88 1025.17 1025.57 1025.94 1026.30 1026.44 1026.51 1026.59 1026.86 1027.09 1027.26 1027.29 1027.31 1027.43 1027.53 1027.35 1027.15 1026.93 1026.72 1026.48 1026.32 1026.11 1025.87 1025.66 1025.48 1025.37 1025.09 1024.54 1024.10 1023.73
1022.18 1022.22 1022.41 1022.56 1022.49 1022.55 1022.67 1022.77 1023.02 1023.10 1023.28 1023.64 1023.86 1023.97 1024.23 1024.66 1025.03 1025.35 1025.68 1025.77 1025.66 1026.08 1026.36 1026.57 1026.68 1026.70 1026.82 1026.91 1026.97 1026.84 1026.72 1026.54 1026.37 1026.17 1026.03 1025.81 1025.66 1025.45 1025.15 1024.87 1024.57 1024.24 1023.88 1023.57
1021.89 1021.72 1021.53 1021.61 1021.79 1021.76 1021.84 1022.21 1022.47 1022.54 1022.71 1022.95 1023.14 1023.42 1023.86 1024.12 1024.44 1024.71 1024.93 1025.05 1025.10 1025.49 1025.72 1025.90 1026.03 1026.16 1026.24 1026.27 1026.21 1026.25 1026.22 1026.16 1026.06 1025.92 1025.71 1025.55 1025.36 1025.11 1024.76 1024.49 1024.24 1023.95 1023.66 1023.35
1021.32 1021.40 1021.24 1021.18 1021.12 1021.24 1021.42 1021.55 1021.78 1021.95 1022.06 1022.21 1022.43 1022.77 1023.09 1023.27 1023.65 1023.91 1023.99 1024.23 1024.66 1024.91 1025.10 1025.27 1025.41 1025.58 1025.65 1025.61 1025.47 1025.59 1025.62 1025.64 1025.59 1025.48 1025.35 1025.26 1025.14 1024.89 1024.53 1024.16 1023.92 1023.71 1023.41 1023.11
1020.62 1020.57 1020.60 1020.77 1020.93 1020.90 1020.80 1020.57 1020.98 1021.18 1021.35 1021.53 1021.81 1022.09 1022.42 1022.69 1022.95 1023.26 1023.43 1023.72 1023.96 1024.22 1024.34 1024.53 1024.74 1024.87 1024.95 1024.90 1024.95 1025.02 1025.05 1025.07 1025.07 1025.07 1025.01 1024.93 1024.75 1024.45 1024.15 1023.83 1023.53 1023.29 1023.02 1022.70
1020.00 1019.99 1020.13 1020.11 1020.12 1020.04 1019.97 1020.05 1020.35 1020.58 1020.82 1021.08 1021.28 1021.57 1021.88 1022.08 1022.28 1022.41 1022.90 1023.19 1023.52 1023.79 1023.93 1024.13 1024.31 1024.38 1024.37 1024.36 1024.54 1024.58 1024.60 1024.61 1024.59 1024.57 1024.49 1024.36 1024.14 1023.89 1023.64 1023.38 1023.08 1022.79 1022.52 1022.21
1019.30 1019.32 1019.23 1019.16 1019.20 1019.29 1019.38 1019.56 1019.63 1019.72 1020.11 1020.33 1020.58 1020.84 1021.17 1021.58 1021.95 1022.25 1022.61 1022.82 1023.15 1023.32 1023.45 1023.66 1023.84 1023.96 1024.02 1024.11 1024.18 1024.21 1024.18 1024.10 1024.05 1023.94 1023.87 1023.77 1023.58 1023.37 1023.09 1022.78 1022.45 1022.11 1021.79 1021.44
1018.67 1018.70 1018.64 1018.67 1018.73 1018.97 1019.10 1019.14 1019.25 1019.36 1019.67 1019.84 1020.00 1020.41 1020.77 1021.19 1021.56 1021.84 1022.14 1022.42 1022.65 1022.89 1023.12 1023.29 1023.43 1023.49 1023.49 1023.54 1023.56 1023.54 1023.49 1023.41 1023.29 1023.18 1023.06 1022.89 1022.67 1022.37 1022.10 1021.84 1021.54 1021.25 1020.92 1020.55
Wind_Speed
5 5 4 7 9 7 8 9 8 8 6 3 7 7 7 5 4 4 6 8 9 10 11 12 12 12 12 12 12 13 11 11 10 11 11 11 11 11 11 11 10 11 10 10
3 1 4 8 7 7 6 6 10 7 7 2 4 6 6 4 3 4 5 7 8 9 11 12 13 14 13 13 13 13 11 11 11 11 11 11 12 13 12 12 12 12 12 12
2 4 7 9 3 3 3 1 3 4 6 3 4 4 2 4 1 2 4 6 8 9 11 11 12 12 13 13 13 12 11 11 11 12 12 12 12 12 12 13 13 12 12 12
3 5 5 7 2 2 5 4 3 4 6 4 1 2 1 2 2 2 4 7 8 9 10 10 11 11 12 12 12 12 12 12 12 13 13 12 12 12 12 12 12 11 12 12
4 4 4 6 6 4 5 4 3 1 3 5 4 7 7 4 2 3 5 6 7 8 10 10 10 12 12 12 12 12 13 14 14 15 14 14 13 12 12 12 11 11 11 12
2 4 4 6 5 0 3 7 5 2 6 8 7 9 7 6 2 1 4 6 8 9 9 9 10 11 12 12 12 13 14 15 14 14 13 13 13 12 11 11 11 9 10 10
6 5 4 6 4 4 6 4 5 9 9 12 13 11 3 2 0 3 5 7 8 8 8 8 9 11 11 11 12 13 13 12 12 12 12 11 11 10 10 10 9 9 10 9
3 5 7 7 3 5 9 13 11 10 14 15 14 8 5 2 3 4 5 5 5 7 7 7 8 8 10 11 12 12 12 11 10 11 9 8 10 9 10 9 9 9 9 9
5 2 5 6 10 10 8 12 14 14 11 9 8 5 2 4 3 4 4 5 5 6 6 6 7 7 9 10 10 11 10 10 9 9 9 9 9 9 8 10 8 9 8 9
4 7 13 10 13 7 6 7 9 9 9 4 6 4 4 5 4 4 4 4 4 5 5 6 7 7 8 9 9 9 8 9 8 9 8 8 7 7 7 8 8 8 8 9
10 14 12 14 6 5 8 8 9 7 7 6 6 6 5 5 5 4 4 3 4 5 5 7 7 7 7 8 9 8 7 7 8 7 8 7 6 7 7 8 9 8 8 8
6 6 8 13 10 9 12 12 13 10 9 6 6 6 5 5 4 4 4 4 5 5 6 6 6 6 6 7 8 7 6 5 6 5 5 6 6 5 9 11 13 15 16 15
13 10 10 13 14 15 15 13 10 8 7 5 6 6 6 5 5 4 6 6 6 6 6 5 6 5 5 6 7 6 6 6 4 5 5 6 6 6 6 6 6 10 14 16
11 10 11 12 8 5 6 5 2 4 5 5 5 5 6 6 5 6 6 6 6 6 6 5 5 5 5 5 6 5 5 5 4 4 5 5 5 5 5 6 7 7 8 12
12 11 13 11 9 9 4 5 5 6 6 6 7 7 7 8 7 7 6 6 6 6 6 5 5 4 4 5 5 4 4 3 3 3 3 4 4 4 5 5 6 6 6 8
9 11 10 10 10 6 7 8 8 8 8 8 8 9 9 9 8 7 7 6 7 6 5 5 5 4 4 4 4 4 3 4 4 3 3 3 3 4 4 5 5 6 6 7
9 9 9 9 9 8 10 9 9 8 7 8 9 8 8 9 8 8 8 7 7 7 6 6 6 5 4 5 4 3 3 3 3 3 3 3 3 4 4 5 5 5 6 6
12 12 9 7 6 8 8 9 8 9 9 9 8 8 9 10 10 8 7 7 7 8 8 8 6 6 4 4 5 4 4 4 3 3 3 3 4 4 4 5 5 6 6 6
8 10 10 11 10 9 8 8 8 9 8 8 8 10 10 10 9 8 7 8 9 9 8 8 8 7 6 4 5 4 4 4 4 4 4 5 4 4 5 5 6 7 7 7
8 8 9 11 10 10 11 9 8 8 8 8 9 10 10 10 9 8 8 10 9 7 6 7 8 7 6 5 5 4 4 5 5 5 4 5 5 5 6 7 7 7 7 7
11 9 10 11 11 11 12 10 9 10 10 10 11 11 11 10 9 8 9 8 8 9 10 10 8 6 5 5 5 4 5 5 5 5 5 5 6 6 7 7 7 7 7 8
9 10 12 12 11 13 12 9 10 11 10 10 11 10 9 10 9 9 9 9 4 9 7 7 6 9 7 10 7 6 5 6 6 6 6 6 7 7 7 7 8 8 8 8
8 9 9 10 10 10 9 9 9 10 11 10 10 10 10 8 7 8 7 7 8 9 8 7 9 12 11 9 6 7 7 7 7 7 7 7 8 8 8 8 8 8 9 9
9 9 10 8 7 9 10 8 8 9 9 8 9 9 8 7 7 7 6 7 8 9 9 8 9 12 12 7 7 7 7 7 7 7 8 11 8 8 8 9 9 9 9 11
8 8 10 9 9 8 8 8 6 7 7 9 9 8 9 7 7 4 6 6 10 9 8 10 12 13 8 7 7 8 8 7 7 7 8 8 9 9 9 9 10 10 10 10
7 7 8 8 7 6 6 5 6 5 6 7 6 6 6 6 6 6 5 7 5 7 7 6 6 6 7 7 8 8 8 8 8 8 9 9 9 9 10 10 10 10 10 9
8 10 7 7 6 5 6 6 6 7 7 6 6 5 6 5 5 6 7 6 6 6 6 5 5 7 6 7 7 7 7 8 10 8 8 9 9 9 9 9 9 9 9 9
Wind_Direction
294 299 292 278 286 285 266 281 268 349 329 172 172 161 140 119 86 57 38 26 20 12 5 1 359 355 354 352 349 347 344 344 349 344 343 341 340 339 338 340 338 340 339 342
279 356 304 280 278 270 261 266 265 281 259 102 142 142 159 118 59 36 28 16 4 0 357 353 349 344 342 345 343 338 338 336 341 338 336 337 334 329 328 326 324 326 325 325
230 314 302 243 209 185 119 67 294 278 61 157 137 169 219 226 328 4 7 358 357 353 346 345 342 338 338 336 333 336 335 338 337 336 335 333 329 329 328 322 323 321 321 321
307 298 236 82 101 110 107 73 68 106 103 88 95 332 297 141 292 340 356 345 345 339 338 339 336 336 332 332 334 335 334 336 335 333 330 330 330 328 325 324 324 322 323 324
280 263 328 176 175 192 220 134 73 16 306 297 293 293 241 163 98 16 351 345 334 335 332 334 342 340 334 333 335 332 339 335 333 328 325 325 326 325 327 323 320 322 325 324
211 265 274 95 135 244 200 230 136 360 308 285 271 264 282 145 153 330 347 346 339 339 333 341 346 343 334 337 336 341 338 330 327 327 325 325 325 330 320 323 321 325 325 326
245 264 269 121 66 149 235 76 284 305 299 292 274 266 30 135 348 7 352 341 338 332 334 339 346 338 335 337 343 337 332 329 329 330 330 336 332 329 329 333 334 334 337 336
211 234 249 162 159 229 337 308 296 278 303 289 274 252 227 264 329 336 336 338 340 330 334 341 343 339 341 341 342 337 326 335 341 340 345 348 346 353 360 1 355 1 359 1
244 346 143 187 293 295 300 289 295 292 279 273 270 241 244 284 297 321 326 329 333 328 318 331 341 341 338 342 338 334 345 348 353 4 3 4 12 11 13 15 18 18 15 14
276 235 262 284 286 273 280 269 293 284 286 260 260 252 271 281 299 304 310 312 317 306 317 330 339 328 340 342 336 330 354 353 359 16 16 21 33 22 29 21 19 19 16 16
256 271 277 263 274 256 300 281 292 275 255 256 259 259 276 275 273 272 277 284 301 305 311 311 322 318 336 341 339 328 352 347 358 16 8 20 32 32 27 36 22 17 15 10
262 284 283 283 296 294 290 283 284 272 239 240 241 261 249 261 262 258 267 270 288 294 296 296 311 309 331 341 340 334 340 343 7 360 12 18 13 16 59 32 18 19 17 23
270 289 286 291 294 283 284 289 286 258 248 245 229 246 240 254 247 257 261 263 272 284 287 291 298 302 324 326 337 336 331 346 352 353 1 7 13 9 3 18 34 29 12 15
262 274 270 260 271 306 292 281 232 205 226 230 241 232 244 249 249 254 257 269 265 271 274 280 288 291 322 318 322 306 320 342 339 342 355 354 358 1 357 357 352 3 11 1
258 258 262 282 277 268 245 208 218 231 234 235 233 240 235 244 249 256 261 254 252 262 255 260 270 287 323 320 314 304 312 305 334 340 353 349 350 351 354 347 349 351 349 358
284 278 270 252 255 244 214 216 230 242 240 243 239 235 237 240 248 253 250 239 246 251 241 246 257 279 301 287 305 283 286 299 309 311 321 340 347 339 344 342 341 344 346 351
270 267 240 239 235 227 223 228 236 252 254 245 245 243 236 235 240 245 240 236 241 246 244 238 248 262 278 261 275 271 271 269 304 276 297 310 315 329 330 328 330 331 333 338
237 254 249 249 225 216 231 234 236 241 240 244 237 227 230 231 238 244 242 232 235 242 240 232 234 243 248 247 253 269 258 264 268 278 290 295 317 309 312 311 310 315 320 325
245 244 232 229 228 232 244 238 230 237 240 232 227 228 230 232 235 241 232 225 235 243 241 216 222 240 239 237 261 246 248 253 256 258 271 281 282 295 304 307 312 314 314 316
248 237 238 237 234 231 237 240 241 241 239 232 233 235 235 232 230 230 222 232 237 239 219 214 225 231 234 231 244 243 253 257 264 268 268 285 283 288 289 283 291 301 308 312
248 230 235 240 240 237 237 246 240 244 243 228 229 232 231 238 231 227 229 240 241 228 227 229 231 231 231 238 235 247 256 261 268 273 275 279 281 274 280 289 295 297 301 302
265 237 230 230 233 245 245 247 245 248 245 236 233 231 222 229 226 227 229 238 235 213 207 221 226 231 236 240 236 245 258 263 267 271 271 274 277 280 282 287 291 295 296 295
253 261 260 252 244 254 262 241 241 238 241 234 223 217 217 225 216 222 236 220 225 222 221 225 230 233 246 248 236 243 252 256 260 265 269 273 277 278 279 284 287 290 291 292
253 251 254 262 260 251 251 248 222 233 225 221 224 219 213 217 223 224 231 211 209 209 215 221 231 239 247 250 242 250 255 260 261 264 269 272 273 275 278 281 281 283 286 289
250 264 271 254 239 244 244 250 232 234 220 232 231 217 213 218 230 219 211 214 223 227 235 243 247 252 256 260 252 257 261 261 262 265 269 271 273 278 279 279 279 280 279 277
246 259 254 230 241 261 260 244 236 227 219 225 221 212 207 208 216 217 206 212 216 226 233 240 240 245 250 251 255 258 261 265 264 266 268 269 268 269 271 270 273 274 274 273
249 251 247 250 236 245 250 240 226 236 224 220 225 197 203 204 210 212 216 216 224 226 232 240 247 253 252 249 253 257 257 258 259 260 262 264 262 266 270 271 274 276 276 276